CAPE
0 0 0 0 0 0 0 0 0 0 0 0 0 0 0 0 0 0 0 1 2 8
0 0 0 0 0 0 0 0 0 0 0 0 0 0 0 0 0 0 0 0 0 2
0 0 0 0 0 0 0 0 0 0 0 0 0 0 0 0 0 0 0 0 0 1
0 0 0 0 0 0 0 0 0 0 0 0 0 0 0 0 0 0 1 0 1 2
0 0 0 0 0 0 0 0 0 0 0 0 0 0 0 0 0 0 0 0 2 5
0 0 0 0 0 0 0 0 0 0 0 0 0 0 0 0 0 0 0 0 0 3
0 0 0 0 0 0 0 0 0 0 0 0 0 0 0 0 0 0 0 0 0 0
0 0 0 0 0 0 0 0 0 0 0 0 0 0 0 0 0 0 0 0 0 0
0 0 0 0 0 0 0 0 0 0 0 0 0 0 0 0 0 0 0 0 0 0
0 0 0 0 0 0 0 0 0 0 0 0 0 0 0 0 0 0 0 0 0 0
0 0 0 0 0 0 0 0 0 0 0 0 0 0 0 0 0 0 0 0 0 0
0 0 0 0 0 0 0 1 0 0 0 0 0 0 1 0 0 0 0 0 0 0
0 0 0 0 0 0 0 0 0 0 0 0 0 0 0 0 0 0 0 0 0 0
0 0 0 0 0 0 0 0 0 0 0 0 0 0 0 0 0 0 0 0 0 0
CIN
0 0 0 0 0 0 0 0 0 0 0 0 0 0 0 0 0 0 0 0 0 0
0 0 0 0 0 0 0 0 0 0 0 0 0 0 0 0 0 -1 0 0 0 0
0 0 0 0 0 0 0 0 0 0 0 0 0 0 0 0 0 0 0 0 0 0
0 0 0 0 0 0 0 0 0 0 0 0 0 0 0 0 0 0 0 0 0 0
0 0 0 0 0 0 0 0 0 0 0 0 0 0 0 0 0 0 0 0 0 0
0 0 0 0 0 0 0 0 0 0 0 0 0 0 0 0 0 0 0 0 0 0
0 0 0 0 0 0 0 0 0 0 0 0 0 0 0 0 0 0 0 0 0 -1
0 0 0 0 0 0 0 0 0 0 -1 0 0 0 0 0 0 0 0 0 0 -1
0 0 0 0 0 0 0 0 0 0 0 0 0 0 0 0 0 0 0 0 0 0
0 0 0 0 0 0 0 0 0 0 0 0 0 0 0 0 0 0 0 0 0 0
0 0 0 0 0 0 -1 0 0 0 0 0 0 0 0 0 0 0 0 0 0 0
0 0 0 0 0 0 0 -38 0 0 0 0 0 0 0 0 0 0 0 0 0 0
0 0 0 0 0 0 0 0 0 0 0 0 0 0 0 0 0 0 0 0 0 0
0 0 0 0 0 0 0 0 0 0 0 0 0 0 0 0 0 0 0 0 0 0
Wind_Speed
7 5 4 5 4 5 4 4 4 5 6 6 6 5 4 3 4 4 4 6 7 6
6 6 6 7 6 5 5 4 5 6 6 6 6 6 5 3 6 4 5 6 5 6
5 6 7 5 7 7 7 5 6 7 7 6 6 5 5 4 5 6 7 6 6 7
5 5 5 5 7 7 5 7 8 7 6 6 6 5 5 5 5 8 7 6 6 8
4 4 6 6 8 5 8 6 7 6 6 7 7 6 7 7 8 9 7 5 6 8
4 5 7 8 8 7 6 7 6 6 7 9 8 7 8 9 9 8 7 5 6 8
5 5 6 7 7 8 7 8 8 10 9 10 9 11 12 12 9 8 6 4 4 4
5 5 6 7 7 8 7 8 10 8 10 9 9 8 8 7 7 7 6 5 4 5
5 6 7 7 8 7 7 8 8 8 10 9 8 11 12 8 6 7 7 6 5 6
5 6 7 7 7 7 7 6 9 6 7 8 8 10 12 13 6 7 6 6 5 3
6 6 6 6 7 8 7 6 5 5 6 7 7 11 11 13 7 6 7 7 7 6
5 6 6 8 10 8 6 6 5 4 5 7 6 11 12 12 7 7 8 7 7 6
5 5 9 10 9 5 3 4 3 4 4 6 6 9 13 13 6 8 6 6 6 10
5 5 7 6 3 4 4 4 3 3 3 4 5 6 13 16 7 7 7 6 4 4
Wind_Direction
227 223 231 236 222 235 229 224 203 225 220 230 231 221 226 229 243 228 228 243 248 266
231 225 236 233 222 231 231 218 210 216 218 229 231 219 213 227 251 254 270 260 246 251
236 226 230 231 246 237 243 215 208 214 210 214 220 213 207 216 234 240 253 254 258 257
261 251 255 244 244 238 236 212 214 212 209 208 207 202 210 221 216 229 242 237 248 259
285 309 277 268 268 257 244 220 219 200 205 201 198 192 211 224 233 227 205 227 248 261
291 275 264 260 254 251 246 242 228 207 205 204 196 197 220 221 214 209 194 201 241 263
258 267 280 284 280 268 246 228 222 218 207 211 204 202 210 211 202 196 195 187 233 274
302 303 300 294 281 275 251 247 249 233 239 217 216 214 215 199 196 194 179 177 210 251
313 306 288 286 285 284 269 248 254 242 241 227 221 218 194 188 187 190 174 175 205 233
288 288 283 290 299 295 289 271 270 250 231 233 229 217 204 195 180 179 177 175 181 201
276 280 284 283 285 283 279 263 248 224 212 218 229 219 202 194 183 176 176 177 178 181
288 293 291 295 293 281 268 250 225 212 216 212 223 204 203 178 179 175 178 179 181 180
302 302 300 294 291 278 267 289 295 278 249 227 236 206 199 184 183 178 170 171 180 184
290 289 287 293 315 338 317 323 333 325 321 294 250 223 206 193 186 183 165 167 171 169